O3B FM3 (40079 NORAD) Tracking and Keplerian Element Data

This shows tracking and keplerian element data for the satellite.

Feedback or suggestion? Click here.




ElementValue
Catalog40079
NameO3B FM3
Epoch Orbit7364
Epoch Day202.48726471
Epoch Year2018
RAAN16.1074
Inclination0.0416
Eccentricity0.0002658
Argument of Perigee50.3259
Mean Anonmoly293.5914
Mean Motion5.0011541
Decay Rate-2.9E-07
L11 40079U 14038A 18202.48726471 -.00000029 00000-0 00000+0 0 9999
L22 40079 0.0416 16.1074 0002658 50.3259 293.5914 5.00115410 73647

Live tracking and technical data element details for O3B FM3 (NORAD 40079). O3B FM3 can be tracked NOW for your location showing map with azimuth and elevation plus other details from your city location.

Track the satellite on the map from your city or location and see movement details for azimuth, elevation, latitude, longitude, range, height, and movement on the map or in text.







IsCatalogInMostPopularTable: catalog: 40079, numindb: 60
Update: records affected: 1



GetName: 40079 O3B FM3

Hit Count: updated at: Mon, 23 Jul 2018 07:39:00 GMT